Simultaneous Nadir Overpasses (SNOs) Predictions

Prediction of SNOs between METOP-B and TERRA Satellite Orbit:

Table of predicted SNOs for the next 14.0 days since TLE Epoch: 10/8/2022
Index Date (METOP-B) Time (METOP-B) Lat,Lon (METOP-B) SZA (METOP-B ) Date (TERRA) Time (TERRA) Lat,Lon (TERRA) SZA (TERRA ) Distance(km) Time Diff (sec)
1 10/10/2022 05:23:38 81.05, 137.28 89.87 10/10/2022 05:23:46 81.06, 137.22 89.87 1.15 8
2 10/10/2022 06:14:18 -81.07, -54.97 90.06 10/10/2022 06:13:12 -81.08, -54.89 90.08 1.39 66
3 10/13/2022 00:07:24 -81.02, 35.55 89.18 10/13/2022 00:08:26 -81.02, 35.57 89.15 0.43 62
4 10/13/2022 00:58:02 81.06,-156.23 90.96 10/13/2022 00:57:51 81.05,-156.41 90.93 3.25 11
5 10/15/2022 19:41:47 -81.02, 101.99 88.12 10/15/2022 19:42:29 -81.03, 102.10 88.09 1.94 42
6 10/15/2022 20:32:25 81.06, -89.82 92.01 10/15/2022 20:31:54 81.06, -89.91 91.99 1.59 31
7 10/18/2022 15:16:10 -81.04, 168.73 87.03 10/18/2022 15:16:32 -81.04, 168.77 87.02 0.96 22
8 10/18/2022 16:06:48 81.07, -23.10 93.09 10/18/2022 16:05:57 81.07, -23.26 93.05 2.71 51
9 10/21/2022 10:50:33 -81.05,-124.60 85.98 10/21/2022 10:50:35 -81.04,-124.78 86.00 3.20 2



Historial Predications of SNOs between METOP-B and TERRA
